Total_Precipitation_Accumulation
0.67 0.75 0.84 0.93 1.08 1.13 1.08 1.09 1.02 1.00 1.02 1.02 1.00 1.03 1.00 0.95 0.92 0.96 0.94 1.01 1.08 1.17 1.19 1.14 1.12 1.21 1.24 1.16 1.15 1.17 1.25 1.37 1.42 1.43 1.55 1.55 1.40 1.19 1.15 1.18 1.18 1.18 1.02
0.61 0.72 0.79 0.85 0.96 1.07 1.03 1.06 1.12 1.08 1.05 1.00 0.99 1.05 0.99 0.95 0.97 0.91 0.90 0.96 1.06 1.15 1.24 1.37 1.38 1.33 1.29 1.24 1.26 1.28 1.37 1.56 1.60 1.57 1.57 1.59 1.49 1.33 1.24 1.14 1.03 1.01 1.00
0.58 0.69 0.77 0.77 0.84 0.97 1.02 1.03 1.07 1.09 1.12 1.11 1.06 1.05 1.05 1.05 1.06 0.96 0.92 0.93 0.96 0.98 1.09 1.34 1.55 1.70 1.58 1.41 1.32 1.30 1.36 1.48 1.64 1.59 1.57 1.69 1.66 1.52 1.39 1.20 1.07 1.04 0.90
0.57 0.64 0.73 0.78 0.89 1.01 1.03 1.04 1.06 1.04 1.10 1.17 1.19 1.18 1.15 1.11 1.06 1.04 1.09 1.07 1.03 0.96 0.98 1.09 1.23 1.42 1.56 1.63 1.50 1.37 1.36 1.48 1.64 1.68 1.76 1.99 2.01 1.84 1.58 1.36 1.24 1.11 0.96
0.76 0.84 0.92 0.93 1.00 1.12 1.16 1.11 1.15 1.16 1.16 1.30 1.35 1.32 1.29 1.24 1.13 1.18 1.26 1.16 1.16 1.10 1.06 1.04 1.01 1.10 1.24 1.39 1.43 1.53 1.55 1.54 1.64 1.73 1.94 2.35 2.35 2.07 1.66 1.43 1.36 1.29 1.11
1.09 1.20 1.22 1.25 1.30 1.30 1.29 1.24 1.31 1.39 1.51 1.55 1.50 1.45 1.43 1.30 1.35 1.31 1.28 1.25 1.28 1.27 1.23 1.16 1.07 1.01 1.04 1.13 1.20 1.30 1.44 1.50 1.54 1.62 1.81 2.11 2.26 2.13 1.85 1.63 1.43 1.31 1.20
1.06 1.21 1.31 1.34 1.36 1.41 1.41 1.43 1.43 1.49 1.55 1.59 1.63 1.63 1.60 1.67 1.58 1.32 1.26 1.25 1.29 1.33 1.39 1.40 1.17 0.99 1.04 1.02 1.10 1.13 1.15 1.26 1.37 1.46 1.62 1.83 2.13 2.24 2.09 1.72 1.57 1.43 1.21
1.11 1.24 1.38 1.42 1.47 1.49 1.44 1.38 1.37 1.39 1.39 1.36 1.34 1.33 1.40 1.40 1.34 1.15 1.09 1.03 1.12 1.16 1.17 1.19 1.16 1.03 0.97 0.96 0.97 0.95 0.92 0.94 1.01 1.09 1.23 1.48 1.78 2.12 2.28 2.04 1.84 1.64 1.40
1.25 1.38 1.48 1.55 1.63 1.57 1.44 1.38 1.29 1.28 1.20 1.13 1.12 1.14 1.17 1.22 1.20 1.06 1.01 0.93 0.96 0.97 0.96 1.00 1.03 0.95 0.91 0.79 0.78 0.81 0.80 0.79 0.78 0.81 0.90 1.07 1.33 1.64 1.97 2.09 1.81 1.47 1.32
1.22 1.31 1.43 1.50 1.62 1.65 1.54 1.48 1.42 1.40 1.30 1.25 1.20 1.18 1.19 1.28 1.33 1.13 1.04 0.96 0.98 0.99 1.08 1.10 1.06 0.93 0.83 0.67 0.66 0.71 0.70 0.67 0.69 0.70 0.69 0.76 0.88 1.13 1.48 1.63 1.65 1.40 1.16
1.04 1.04 1.15 1.29 1.44 1.50 1.50 1.47 1.51 1.50 1.41 1.27 1.14 1.08 1.08 1.18 1.29 1.14 1.00 0.91 0.97 1.06 1.15 1.22 1.17 0.99 0.75 0.61 0.55 0.55 0.53 0.55 0.60 0.64 0.64 0.68 0.81 0.98 1.14 1.35 1.49 1.41 1.17
1.08 1.12 1.18 1.24 1.25 1.24 1.28 1.29 1.36 1.41 1.37 1.28 1.12 0.99 0.94 0.92 0.91 0.94 0.81 0.72 0.77 0.88 1.02 1.15 1.16 0.99 0.77 0.61 0.51 0.46 0.43 0.41 0.44 0.51 0.54 0.55 0.62 0.75 0.92 1.18 1.39 1.40 1.25
1.19 1.22 1.25 1.26 1.26 1.29 1.26 1.25 1.24 1.20 1.12 1.03 0.93 0.93 0.91 0.86 0.80 0.75 0.62 0.52 0.54 0.66 0.80 1.06 1.14 1.02 0.87 0.72 0.63 0.57 0.48 0.40 0.41 0.43 0.41 0.42 0.46 0.58 0.79 1.12 1.47 1.60 1.50
1.21 1.12 1.03 1.01 1.01 1.06 1.11 1.12 1.14 1.11 1.06 0.99 0.91 0.94 0.90 0.85 0.78 0.73 0.68 0.58 0.57 0.67 0.74 0.90 1.04 1.06 0.96 0.88 0.77 0.64 0.52 0.47 0.44 0.45 0.45 0.48 0.56 0.67 0.80 0.95 1.28 1.53 1.56
1.25 1.16 1.09 1.04 1.01 1.01 1.04 1.08 1.07 1.06 1.03 0.96 0.91 0.97 0.98 0.94 0.90 0.83 0.81 0.79 0.76 0.80 0.78 0.86 1.00 1.09 1.09 1.04 1.00 0.90 0.77 0.69 0.61 0.57 0.63 0.65 0.69 0.75 0.78 0.87 1.07 1.27 1.27
1.23 1.12 1.10 1.11 1.09 1.07 1.03 1.06 1.11 1.00 0.99 0.93 0.94 0.96 0.98 0.92 0.82 0.67 0.65 0.64 0.59 0.55 0.55 0.70 0.88 1.04 1.15 1.19 1.21 1.15 1.03 0.92 0.83 0.80 0.81 0.78 0.75 0.79 0.79 0.82 0.95 1.11 1.12
1.24 1.18 1.12 1.10 1.13 1.12 1.08 1.05 1.09 1.02 0.86 0.79 0.78 0.74 0.72 0.66 0.56 0.50 0.47 0.46 0.42 0.37 0.38 0.55 0.70 0.85 1.01 1.15 1.18 1.14 1.06 1.02 1.02 1.01 0.99 0.95 0.88 0.87 0.90 0.89 0.90 1.02 1.08
1.18 1.21 1.17 1.10 1.07 1.05 1.02 1.00 0.98 0.99 0.91 0.78 0.66 0.58 0.54 0.48 0.49 0.49 0.44 0.40 0.35 0.31 0.33 0.48 0.62 0.75 0.90 1.06 1.11 1.10 1.11 1.13 1.13 1.09 1.10 1.10 1.07 1.01 1.00 0.97 0.93 0.95 1.04
0.89 0.88 0.87 0.87 0.88 0.87 0.83 0.79 0.76 0.74 0.76 0.78 0.68 0.52 0.50 0.46 0.51 0.57 0.46 0.41 0.43 0.42 0.42 0.47 0.55 0.66 0.83 0.99 1.12 1.16 1.18 1.17 1.16 1.17 1.17 1.18 1.20 1.15 1.04 1.03 1.07 1.06 1.04
0.58 0.65 0.61 0.56 0.58 0.62 0.62 0.62 0.60 0.63 0.69 0.78 0.72 0.55 0.48 0.48 0.61 0.71 0.57 0.57 0.60 0.56 0.56 0.60 0.62 0.69 0.86 1.02 1.15 1.24 1.29 1.26 1.21 1.22 1.23 1.23 1.22 1.20 1.10 1.09 1.17 1.16 1.03
0.40 0.39 0.39 0.33 0.38 0.48 0.53 0.52 0.51 0.57 0.65 0.74 0.69 0.51 0.45 0.49 0.74 0.84 0.77 0.75 0.73 0.70 0.70 0.67 0.62 0.66 0.82 0.99 1.09 1.19 1.28 1.27 1.20 1.17 1.23 1.28 1.21 1.15 1.11 1.12 1.16 1.21 1.16
0.30 0.29 0.27 0.26 0.33 0.39 0.39 0.45 0.55 0.62 0.67 0.72 0.66 0.54 0.52 0.60 0.80 0.87 0.82 0.80 0.79 0.76 0.72 0.70 0.66 0.69 0.80 0.93 1.00 1.10 1.23 1.24 1.20 1.19 1.25 1.33 1.28 1.18 1.14 1.13 1.13 1.21 1.26
0.29 0.29 0.26 0.28 0.34 0.35 0.37 0.44 0.57 0.64 0.66 0.68 0.67 0.66 0.67 0.74 0.80 0.83 0.82 0.78 0.76 0.78 0.79 0.82 0.82 0.82 0.88 0.98 1.02 1.09 1.23 1.22 1.18 1.18 1.23 1.27 1.25 1.20 1.18 1.14 1.13 1.19 1.24
0.24 0.27 0.26 0.25 0.27 0.31 0.37 0.41 0.47 0.52 0.55 0.58 0.61 0.63 0.64 0.68 0.73 0.74 0.74 0.74 0.76 0.78 0.81 0.87 0.89 0.90 0.93 0.97 0.98 0.99 1.08 1.07 1.00 0.98 1.02 1.10 1.11 1.12 1.13 1.10 1.07 1.09 1.14
0.25 0.27 0.27 0.28 0.26 0.29 0.34 0.39 0.45 0.50 0.54 0.54 0.55 0.58 0.61 0.62 0.66 0.71 0.74 0.76 0.75 0.76 0.75 0.76 0.80 0.83 0.82 0.78 0.80 0.83 0.88 0.83 0.77 0.77 0.86 0.96 0.98 0.98 0.98 0.96 0.96 1.01 1.08
0.25 0.29 0.33 0.36 0.36 0.34 0.36 0.43 0.49 0.50 0.52 0.51 0.55 0.58 0.63 0.66 0.66 0.70 0.71 0.71 0.70 0.72 0.70 0.73 0.76 0.72 0.70 0.67 0.63 0.65 0.63 0.59 0.60 0.63 0.68 0.77 0.84 0.85 0.88 0.89 0.87 0.92 0.98